Simultaneous Nadir Overpasses (SNOs) Predictions

Prediction of SNOs between METOP-B and TERRA Satellite Orbit:

Table of predicted SNOs for the next 14.0 days since TLE Epoch: 7/1/2023
Index Date (METOP-B) Time (METOP-B) Lat,Lon (METOP-B) SZA (METOP-B ) Date (TERRA) Time (TERRA) Lat,Lon (TERRA) SZA (TERRA ) Distance(km) Time Diff (sec)
1 07/01/2023 11:05:59 80.80, 45.40 59.06 07/01/2023 11:06:25 80.79, 45.39 59.06 0.55 26
2 07/01/2023 11:56:37 -80.86,-146.19 120.80 07/01/2023 11:55:46 -80.85,-146.27 120.83 1.74 51
3 07/04/2023 02:26:57 -80.77, -5.28 120.82 07/04/2023 02:27:51 -80.77, -5.25 120.80 0.48 54
4 07/04/2023 03:17:34 80.84, 163.24 59.35 07/04/2023 03:17:10 80.83, 163.14 59.32 2.10 24
5 07/06/2023 18:38:30 -80.83, 112.88 120.44 07/06/2023 18:38:34 -80.83, 112.71 120.45 3.04 4
6 07/06/2023 19:28:23 81.36, -61.80 61.84 07/06/2023 19:27:10 81.78, -62.43 61.99 47.26 73
7 07/09/2023 09:59:28 80.79, 61.83 59.74 07/09/2023 09:59:58 80.78, 61.79 59.74 0.94 30
8 07/09/2023 10:50:06 -80.85,-129.70 120.11 07/09/2023 10:49:19 -80.85,-129.79 120.14 1.67 47
9 07/12/2023 01:20:26 -80.75, 11.07 120.01 07/12/2023 01:21:23 -80.76, 11.15 119.98 1.46 57
10 07/12/2023 02:11:03 80.82, 179.53 60.16 07/12/2023 02:10:42 80.81, 179.46 60.13 1.48 21
11 07/14/2023 17:32:00 -80.81, 129.08 119.50 07/14/2023 17:32:06 -80.81, 129.03 119.51 0.90 6



Historial Predications of SNOs between METOP-B and TERRA
